Retour au catalogue

DELTA 1 DEB

ActifLEO
NORAD 7061·DEBRIS·🇺🇸 United States

Lancé Nov 6, 1973 depuis Vandenberg Space Force Base

Loading…

Prochains Passages (prochaines 24 heures)

TLE

FraisSource: Space-Track

Époque: Sep 14, 2026, 04:17 UTC

1 07061U 73086BD  26257.17874426  .00000026  00000-0  43875-3 0  9997
2 07061 102.4530 153.8491 0138155 178.2039 338.3704 12.56191745418928

Suivez DELTA 1 DEB en temps réel avec AllMySat

Download on the App Store